Flag for Switzerland Weather past 2 weeks in Solothurn, Solothurn, Switzerland

Now
31 °F

Chilly.


Feels Like: 23 °F
Forecast: 27 / 36 °F
Wind: 9 mph from West

Location: Grenchen

Current Time: Jan 30, 2015 at 11:32:57 AM

Latest Report: Jan 30, 2015 at 11:00 AM


Visibility: N/A

Pressure: 29.15 "Hg

Humidity: 91%

Dew point: 29 °F

Location of SolothurnLocation

Historic Weather in Solothurn — Graph

°F

Solothurn temperature yesterday

Maximum temperature yesterday: 37 °F (at 10:00 PM)
Minimum temperature yesterday: 33 °F (at 9:00 AM)
Average temperature yesterday: 36 °F

Past Weeks' High & Low Weather Summary

 TemperatureHumidityPressure
High46 °F (Jan 15, 4:00 PM)100% (Jan 15, 10:00 AM)30.49 "Hg (Jan 15, 10:00 AM)
Low22 °F (Jan 28, 5:00 AM)63% (Jan 25, 1:00 PM)28.91 "Hg (Jan 30, 12:00 AM)
Average33 °F92%30.02 "Hg
* Reported Jan 15 10:00 AM — Jan 30 10:00 AM, Solothurn, Weather by CustomWeather, © 2014

Note: Actual official high and low records may vary slightly from our data, if they occured in-between our weather recording intervals... More about our weather records

Advertising

Solothurn weather history for previous 24 hours

 ConditionsComfort  
Time TempWeatherWind HumidityBarometerVisibility
10:00 AM
Jan 30
31 °FChilly.8 mph90%29.15 "HgN/A
9:00 AM33 °FChilly.10 mph74%29.15 "HgN/A
8:00 AM33 °FChilly.10 mph80%29.15 "HgN/A
7:00 AM34 °FChilly.18 mph66%29.12 "HgN/A
6:00 AM34 °FChilly.15 mph66%29.12 "HgN/A
5:00 AM35 °FChilly.15 mph69%29.06 "HgN/A
4:00 AM36 °FChilly.29 mph68%29.00 "HgN/A
3:00 AM36 °FChilly.15 mph86%28.97 "HgN/A
2:00 AM37 °FChilly.17 mph95%28.94 "HgN/A
1:00 AM35 °FChilly.20 mph96%28.94 "HgN/A
12:00 AM37 °FChilly.13 mph96%28.91 "HgN/A
11:00 PM
Jan 29
37 °FChilly.14 mph96%28.94 "HgN/A
10:00 PM37 °FChilly.14 mph95%29.00 "HgN/A
9:00 PM37 °FChilly.15 mph96%29.06 "HgN/A
8:00 PM36 °FChilly.14 mph96%29.09 "HgN/A
7:00 PM36 °FChilly.18 mph95%29.15 "HgN/A
6:00 PM36 °FChilly.16 mph96%29.21 "HgN/A
5:00 PM36 °FChilly.13 mph97%29.23 "HgN/A
4:00 PM36 °FChilly.14 mph97%29.29 "HgN/A
3:00 PM36 °FChilly.13 mph96%29.35 "HgN/A
2:00 PM36 °FChilly.15 mph95%29.41 "HgN/A
1:00 PM36 °FChilly.16 mph96%29.47 "HgN/A
12:00 PM35 °FChilly.16 mph97%29.54 "HgN/A
11:00 AM35 °FChilly.8 mph98%29.59 "HgN/A
Weather by CustomWeather, © 2014

See weather overviewHow to use our weather pages